Flag for Hungary Weather past 2 weeks in Budapest, Hungary

Now
32 °F

Light rain. Ice fog.


Feels Like: 25 °F
Forecast: 25 / 35 °F
Wind: 8 mph from Northwest

Location: Ferenc Liszt International Airport

Current Time: Jan 25, 2015 at 5:57:46 PM

Latest Report: Jan 25, 2015 at 5:30 PM


Visibility: 2 mi

Pressure: 30.07 "Hg

Humidity: 100%

Dew point: 32 °F

Location of BudapestLocation

Historic Weather in Budapest — Graph

°F

Budapest temperature yesterday

Maximum temperature yesterday: 43 °F (at 12:00 AM)
Minimum temperature yesterday: 36 °F (at 8:00 PM)
Average temperature yesterday: 39 °F

Past Weeks' High & Low Weather Summary

 TemperatureHumidityPressure
High61 °F (Jan 10, 11:30 PM)100% (Jan 13, 8:00 AM)30.27 "Hg (Jan 13, 8:00 AM)
Low23 °F (Jan 13, 5:00 AM)29% (Jan 11, 9:00 AM)29.74 "Hg (Jan 10, 11:00 PM)
Average39 °F87%29.99 "Hg
* Reported Jan 10 4:00 PM — Jan 25 4:30 PM, Budapest, Weather by CustomWeather, © 2014

Note: Actual official high and low records may vary slightly from our data, if they occured in-between our weather recording intervals... More about our weather records

Advertising

Budapest weather history for previous 24 hours

 ConditionsComfort  
Time TempWeatherWind HumidityBarometerVisibility
4:30 PM
Jan 25
34 °FDrizzle. Fog.8 mph100%30.04 "Hg2 mi
4:00 PM34 °FFog.9 mph100%30.04 "Hg2 mi
3:30 PM34 °FLight snow. Fog.9 mph100%30.04 "Hg2 mi
3:00 PM34 °FLight snow. Fog.9 mph100%30.01 "Hg2 mi
2:30 PM34 °FLight rain. Fog.9 mph100%30.01 "Hg2 mi
2:00 PM34 °FLight rain. Fog.9 mph100%30.01 "Hg2 mi
1:30 PM34 °FLight rain. Fog.10 mph100%30.01 "Hg2 mi
1:00 PM32 °FLight snow. Ice fog.9 mph100%30.01 "Hg2 mi
12:30 PM32 °FLight snow. Ice fog.9 mph100%30.01 "Hg1 mi
12:00 PM32 °FSnow. Ice fog.8 mph100%30.01 "Hg1 mi
11:30 AM32 °FSnow. Ice fog.8 mph100%30.01 "Hg1 mi
11:00 AM32 °FSnow. Ice fog.8 mph100%30.01 "Hg1 mi
10:30 AM32 °FLight snow. Ice fog.8 mph100%29.98 "Hg1 mi
10:00 AM32 °FLight snow. Ice fog.8 mph100%29.98 "Hg2 mi
9:30 AM32 °FLight snow. Ice fog.9 mph100%29.98 "Hg1 mi
9:00 AM32 °FLight snow. Ice fog.10 mph100%29.95 "Hg1 mi
8:30 AM32 °FSnow. Ice fog.9 mph100%29.95 "Hg1 mi
8:00 AM32 °FSnow. Ice fog.7 mph100%29.95 "Hg1 mi
7:30 AM32 °FLight snow. Ice fog.7 mph100%29.92 "Hg1 mi
7:00 AM32 °FLight snow. Ice fog.9 mph100%29.92 "Hg1 mi
6:30 AM32 °FLight snow. Ice fog.9 mph100%29.92 "Hg2 mi
6:00 AM32 °FLight snow. Ice fog.9 mph100%29.92 "Hg2 mi
5:30 AM32 °FLight snow. Ice fog.9 mph100%29.89 "Hg2 mi
5:00 AM32 °FLight snow. Ice fog.8 mph100%29.89 "Hg2 mi
4:30 AM32 °FLight snow. Ice fog.8 mph100%29.89 "Hg2 mi
4:00 AM32 °FLight snow. Ice fog.8 mph100%29.89 "Hg2 mi
3:30 AM32 °FLight snow. Ice fog.9 mph100%29.89 "Hg2 mi
3:00 AM32 °FLight rain. Ice fog.10 mph100%29.86 "Hg2 mi
2:30 AM34 °FLight rain. Fog.10 mph100%29.86 "Hg3 mi
2:00 AM34 °FLight rain. Overcast.9 mph100%29.86 "Hg4 mi
1:30 AM34 °FLight rain. Mostly cloudy.10 mph100%29.86 "Hg4 mi
1:00 AM34 °FLight rain. Mostly cloudy.9 mph100%29.86 "Hg4 mi
12:30 AM36 °FLight rain. Mostly cloudy.9 mph93%29.86 "Hg4 mi
12:00 AM36 °FLight rain. Mostly cloudy.9 mph93%29.86 "Hg4 mi
11:30 PM
Jan 24
36 °FLight rain. Mostly cloudy.9 mph100%29.83 "Hg4 mi
11:00 PM36 °FLight rain. Mostly cloudy.8 mph100%29.83 "Hg4 mi
10:30 PM36 °FLight rain. Mostly cloudy.7 mph100%29.83 "Hg4 mi
10:00 PM36 °FLight rain. Mostly cloudy.7 mph100%29.83 "Hg4 mi
9:30 PM36 °FLight rain. Passing clouds.6 mph100%29.83 "Hg4 mi
9:00 PM36 °FLight rain. Mostly cloudy.7 mph100%29.83 "Hg4 mi
8:30 PM36 °FLight rain. Overcast.7 mph100%29.80 "Hg4 mi
8:00 PM36 °FLight rain. Partly cloudy.8 mph100%29.80 "Hg4 mi
7:30 PM37 °FLight rain. Mostly cloudy.8 mph100%29.80 "Hg4 mi
7:00 PM37 °FLight rain. Mostly cloudy.7 mph100%29.80 "Hg4 mi
6:30 PM37 °FLight rain. Mostly cloudy.6 mph100%29.80 "Hg4 mi
6:00 PM37 °FLight rain. Mostly cloudy.6 mph100%29.80 "Hg4 mi
5:30 PM37 °FLight rain. Mostly cloudy.7 mph100%29.80 "Hg4 mi
5:00 PM37 °FLight rain. Mostly cloudy.10 mph100%29.77 "Hg4 mi
Weather by CustomWeather, © 2014

See weather overviewHow to use our weather pages